KF6ILA Weather Reports


time (UTC)temp
F
wind
direction
speed
knots
gust
knots
rain 1hr
in
rain 24hr
in
rain mn
in
humidity
%
barometer
mb
20260508135850 64 272 7.0 13.0 0.00 0.00 0.00 45 1015.3
20260508135353 64 284 7.8 11.3 0.00 0.00 0.00 45 1015.4
20260508134856 64 272 7.8 13.9 0.00 0.00 0.00 44 1015.2
20260508134400 64 273 7.8 13.9 0.00 0.00 0.00 45 1015.1
20260508133902 64 272 8.7 13.9 0.00 0.00 0.00 46 1015.1
20260508133405 64 281 7.8 13.9 0.00 0.00 0.00 47 1015.1
20260508131417 62 275 9.6 13.9 0.00 0.00 0.00 49 1015.0
20260508130920 62 271 8.7 14.8 0.00 0.00 0.00 50 1015.0
20260508130423 62 271 7.8 17.4 0.00 0.00 0.00 50 1014.9
20260508125926 62 269 8.7 17.4 0.00 0.00 0.00 50 1014.8
20260508124932 61 272 8.7 14.8 0.00 0.00 0.00 53 1014.8
20260508120459 62 270 8.7 13.9 0.00 0.00 0.00 51 1014.7
20260508120002 62 275 7.0 13.0 0.00 0.00 0.00 50 1014.7
20260508113517 62 279 8.7 13.9 0.00 0.00 0.00 51 1014.7
20260508112026 61 278 7.8 12.2 0.00 0.00 0.00 51 1014.7
20260508111529 61 277 6.1 11.3 0.00 0.00 0.00 51 1014.7
20260508110038 62 272 6.1 13.9 0.00 0.00 0.00 51 1014.8
20260508104050 61 257 8.7 11.3 0.00 0.00 0.00 51 1014.7
20260508103553 61 263 6.1 13.0 0.00 0.00 0.00 51 1014.8
20260508102559 62 253 7.8 11.3 0.00 0.00 0.00 50 1014.9
20260508102102 62 262 7.0 11.3 0.00 0.00 0.00 51 1015.0
20260508101605 62 272 7.0 11.3 0.00 0.00 0.00 50 1015.0
20260508101108 62 264 7.0 12.2 0.00 0.00 0.00 50 1015.1
20260508094623 62 261 7.0 12.2 0.00 0.00 0.00 51 1015.2
20260508094126 62 270 6.1 12.2 0.00 0.00 0.00 50 1015.3
20260508093132 62 262 7.0 13.0 0.00 0.00 0.00 49 1015.3
20260508090150 62 246 11.3 14.8 0.00 0.00 0.00 48 1015.5
20260508084659 63 257 7.8 13.0 0.00 0.00 0.00 47 1015.4
20260508084202 63 259 8.7 13.9 0.00 0.00 0.00 46 1015.5
20260508082711 63 261 10.4 15.6 0.00 0.00 0.00 44 1015.6
20260508081717 63 254 8.7 14.8 0.00 0.00 0.00 46 1015.8
20260508081220 63 252 9.6 14.8 0.00 0.00 0.00 46 1015.8
20260508075729 63 268 7.8 13.0 0.00 0.00 0.00 46 1015.9
20260508074735 63 258 8.7 14.8 0.00 0.00 0.00 47 1016.0
20260508073741 63 256 10.4 14.8 0.00 0.00 0.00 47 1016.1
20260508073244 63 258 10.4 14.8 0.00 0.00 0.00 47 1016.2
20260508071256 63 263 11.3 16.5 0.00 0.00 0.00 49 1016.1
20260508070302 63 256 9.6 15.6 0.00 0.00 0.00 50 1016.0
20260508065805 63 261 9.6 13.9 0.00 0.00 0.00 50 1016.1
20260508065308 62 267 8.7 13.9 0.00 0.00 0.00 52 1016.1
20260508064811 62 257 10.4 14.8 0.00 0.00 0.00 53 1016.1
20260508062823 62 256 8.7 13.9 0.00 0.00 0.00 51 1016.3
20260508062326 62 251 9.6 14.8 0.00 0.00 0.00 51 1016.2
20260508061829 62 255 9.6 14.8 0.00 0.00 0.00 51 1016.2
20260508061332 62 251 9.6 14.8 0.00 0.00 0.00 51 1016.1
20260508060836 62 261 9.6 13.9 0.00 0.00 0.00 51 1016.2
20260508055841 61 247 10.4 15.6 0.00 0.00 0.00 51 1016.3
20260508054847 61 252 9.6 15.6 0.00 0.00 0.00 52 1016.3
20260508053853 61 246 11.3 15.6 0.00 0.00 0.00 51 1016.2
20260508051408 62 244 11.3 15.6 0.00 0.00 0.00 50 1016.3
20260508050911 62 248 12.2 15.6 0.00 0.00 0.00 50 1016.4
20260508050414 62 250 12.2 15.6 0.00 0.00 0.00 50 1016.4
20260508045917 61 249 13.0 15.6 0.00 0.00 0.00 50 1016.3
20260508045420 62 249 11.3 15.6 0.00 0.00 0.00 50 1016.4
20260508044923 62 251 9.6 15.6 0.00 0.00 0.00 51 1016.5
20260508044426 62 247 10.4 16.5 0.00 0.00 0.00 49 1016.5
20260508043432 62 250 11.3 18.2 0.00 0.00 0.00 50 1016.5
20260508042935 61 249 13.9 18.2 0.00 0.00 0.00 51 1016.4
20260508035953 62 253 10.4 16.5 0.00 0.00 0.00 54 1015.8
20260508035457 62 255 12.2 17.4 0.00 0.00 0.00 55 1015.9
20260508034005 62 269 10.4 18.2 0.00 0.00 0.00 56 1015.6
20260508032017 61 263 12.2 18.2 0.00 0.00 0.00 60 1015.3
20260508031023 61 262 9.6 14.8 0.00 0.00 0.00 63 1015.3
20260508030526 61 256 8.7 14.8 0.00 0.00 0.00 64 1015.2
20260508025532 62 261 9.6 14.8 0.00 0.00 0.00 62 1015.1
20260508024538 62 265 8.7 15.6 0.00 0.00 0.00 65 1015.0
20260508024041 62 258 8.7 15.6 0.00 0.00 0.00 66 1015.0
20260508023047 63 258 10.4 18.2 0.00 0.00 0.00 65 1015.0
20260508022053 63 259 11.3 16.5 0.00 0.00 0.00 64 1014.9
20260508015608 65 261 12.2 18.2 0.00 0.00 0.00 64 1014.8
20260508015111 65 258 9.6 18.2 0.00 0.00 0.00 68 1014.9
20260508014614 66 255 12.2 17.4 0.00 0.00 0.00 68 1014.9
20260508014117 66 262 10.4 16.5 0.00 0.00 0.00 63 1015.0
20260508012626 67 260 10.4 16.5 0.00 0.00 0.00 66 1015.0
20260508012129 67 275 11.3 15.6 0.00 0.00 0.00 63 1014.9
20260508010141 68 276 10.4 15.6 0.00 0.00 0.00 65 1015.1
20260508004650 69 272 12.2 17.4 0.00 0.00 0.00 61 1015.0
20260508004153 70 260 12.2 17.4 0.00 0.00 0.00 61 1015.1
20260508001708 70 284 7.8 17.4 0.00 0.00 0.00 57 1015.0
20260507234726 72 268 10.4 17.4 0.00 0.00 0.00 51 1015.3
20260507230750 73 275 10.4 15.6 0.00 0.00 0.00 52 2015.3
20260507223808 73 285 11.3 17.4 0.00 0.00 0.00 51 1015.3
20260507223311 73 265 8.7 13.9 0.00 0.00 0.00 51 1015.5
20260507221820 73 277 7.8 16.5 0.00 0.00 0.00 52 1015.5
20260507220329 73 282 9.6 15.6 0.00 0.00 0.00 50 1015.9
20260507215832 73 277 8.7 14.8 0.00 0.00 0.00 50 1015.9
20260507212850 73 270 8.7 17.4 0.00 0.00 0.00 50 1016.2
20260507204914 74 280 9.6 13.9 0.00 0.00 0.00 47 1015.8
20260507204417 74 264 7.8 13.9 0.00 0.00 0.00 45 1015.8
20260507194453 80 218 3.5 11.3 0.00 0.00 0.00 27 1016.4
20260507193956 79 116 3.5 12.2 0.00 0.00 0.00 31 1016.4
20260507193459 79 96 5.2 13.0 0.00 0.00 0.00 27 1016.6
20260507193002 80 91 1.7 13.0 0.00 0.00 0.00 24 1016.6
20260507192506 80 116 5.2 17.4 0.00 0.00 0.00 25 1016.6
20260507192008 80 136 6.1 17.4 0.00 0.00 0.00 28 1016.5
20260507191512 80 111 7.8 18.2 0.00 0.00 0.00 28 1016.5
20260507191014 80 142 6.1 18.2 0.00 0.00 0.00 27 1016.6
20260507190517 80 116 8.7 15.6 0.00 0.00 0.00 29 1016.7
20260507190020 80 103 3.5 16.5 0.00 0.00 0.00 28 1016.8
20260507185525 80 121 11.3 16.5 0.00 0.00 0.00 27 1016.8
20260507185026 80 103 8.7 15.6 0.00 0.00 0.00 31 1016.8
20260507184530 79 113 6.1 13.0 0.00 0.00 0.00 28 1016.8
20260507184032 79 128 7.8 13.0 0.00 0.00 0.00 30 1016.8
20260507183536 78 103 7.8 16.5 0.00 0.00 0.00 32 1017.0
20260507183038 79 69 7.0 18.2 0.00 0.00 0.00 30 1017.0
20260507182542 79 105 11.3 18.2 0.00 0.00 0.00 30 1017.1
20260507182044 79 109 10.4 13.9 0.00 0.00 0.00 31 1017.3
20260507181548 79 102 7.0 13.0 0.00 0.00 0.00 30 1017.3
20260507181051 78 97 8.7 13.9 0.00 0.00 0.00 30 1017.3
20260507180554 78 86 5.2 13.9 0.00 0.00 0.00 32 1017.3
20260507180056 78 97 6.1 13.0 0.00 0.00 0.00 32 1017.4
20260507175559 78 41 2.6 15.6 0.00 0.00 0.00 29 1017.4
20260507175102 77 92 9.6 18.2 0.00 0.00 0.00 30 1017.5
20260507174605 77 102 12.2 18.2 0.00 0.00 0.00 30 1016.6
20260507174108 77 75 6.1 20.0 0.00 0.00 0.00 31 1016.6
20260507173611 77 83 9.6 20.0 0.00 0.00 0.00 31 1016.6
20260507173114 77 59 7.8 15.6 0.00 0.00 0.00 30 1016.6
20260507172617 77 95 7.0 20.9 0.00 0.00 0.00 33 1016.7
20260507172120 77 109 11.3 20.9 0.00 0.00 0.00 30 1016.7
20260507171623 77 101 5.2 18.2 0.00 0.00 0.00 32 1016.7
20260507171126 77 91 10.4 18.2 0.00 0.00 0.00 32 1016.7
20260507170629 77 76 4.3 13.0 0.00 0.00 0.00 33 1016.7
20260507170132 77 95 8.7 13.0 0.00 0.00 0.00 32 1016.8
20260507165636 76 100 7.0 13.0 0.00 0.00 0.00 33 1016.8
20260507165139 76 94 6.1 10.4 0.00 0.00 0.00 33 1016.8
20260507164641 76 81 6.1 10.4 0.00 0.00 0.00 34 1016.9
20260507164144 76 81 5.2 11.3 0.00 0.00 0.00 34 1016.9
20260507163648 76 87 6.1 11.3 0.00 0.00 0.00 33 1017.0
20260507163150 76 94 5.2 9.6 0.00 0.00 0.00 34 1016.9
20260507162653 76 91 4.3 9.6 0.00 0.00 0.00 33 1017.1
20260507162156 75 73 2.6 6.1 0.00 0.00 0.00 35 1017.1
20260507161700 75 80 3.5 10.4 0.00 0.00 0.00 34 1017.0
20260507161202 75 96 5.2 10.4 0.00 0.00 0.00 36 1017.1
20260507160705 75 66 5.2 7.8 0.00 0.00 0.00 34 1017.1
20260507154221 73 100 2.6 7.0 0.00 0.00 0.00 38 1017.1
20260507153227 72 96 0.9 6.1 0.00 0.00 0.00 39 1017.2
20260507152233 72 58 3.5 5.2 0.00 0.00 0.00 37 1017.1
20260507151736 72 56 3.5 6.1 0.00 0.00 0.00 37 1017.2
20260507150742 71 61 3.5 5.2 0.00 0.00 0.00 41 1016.3
20260507150244 71 51 2.6 4.3 0.00 0.00 0.00 40 1016.3
20260507145747 70 79 0.9 2.6 0.00 0.00 0.00 43 1016.3
20260507145250 69 0 0.0 4.3 0.00 0.00 0.00 42 1016.3
20260507144753 67 60 1.7 4.3 0.00 0.00 0.00 48 1016.3